Tracking 29892 objects as of 21-Nov-2024
HD Live streaming from Space Station
objects crossing your sky now

YAOGAN-33

Track YAOGAN-33 now!
10-day predictions


NORAD ID: 47302
Int'l Code: 2020-103A
Perigee: 702.7 km
Apogee: 706.3 km
Inclination: 98.1 °
Period: 98.7 minutes
Semi major axis: 7075 km
RCS: Unknown
Launch date: December 27, 2020
Source: People's Republic of China (PRC)
Launch site: Jiuquan Satellite Launch Center, China (JSC)
Your satellite tracking list
Your tracking list is empty




NASA's NSSDC Master Catalog

Two Line Element Set (TLE):
1 47302U 20103A   24326.12480707  .00001154  00000-0  25703-3 0  9999
2 47302  98.1100 212.3855 0002500  98.7311 261.4172 14.58707063207754
Source of the keplerian elements: AFSPC